THOR ABLESTAR R/B, 669

Orbit data source: Space-Track

THOR ABLESTAR R/B, 669 is space debris in LEO originally from a launch on Sat, 28 Sep 1963 UTC launched from the Air Force Western Test Range (AFWTR). Debris objects in space refer to the collection of defunct objects orbiting the Earth. Examples of debris include non-operational satellites, rocket bodies, and fragments generated from explosions, collisions, or faulty payload assembly.

Loading next visibility...
Identifier
669, 1963-038A
Orbit
LEO
Country
Flag of USUS
Related business
Manufacturer
Aerojet
Mission
Spacecraft
Bus & Motor
ABLESTAR, Unknown motor
Mass
~600 kg wet, 600 kg dry
Launch date (UTC)
1963-09-28 (63 years ago)
Launch vehicle
Unknown
Launch site
Air Force Western Test Range (AFWTR)
Object type
Payload
Rocket body
Debris
Shape & HBR
Unknown
Radar Cross Section
Large (>1 m²)

Expand to show TLE details & history
Last TLE update: 17 hours ago

TLE from 17 hours ago
0 THOR ABLESTAR R/B
1 00669U 63038A   26175.18512238  .00000041  00000-0  52971-4 0  9995
2 00669  89.9740 334.1673 0028249  96.4268  76.8709 13.46133095 80647
Epoch: 2026-06-24T04:26Z
TLE epoch observation values (Epoch: 2026-06-24T04:26:34.573Z)
Latitude
6.30969°
Longitude
175.17442°
Altitude
1,084.137 km
Speed
7.313 km/s
True Right ascension
10h 16m 39s
True Declination
6° 16' 26"
Sunlit
Object was in daylight at epoch
Visualization orbit readout
Latitude
Unknown
Longitude
Unknown
Altitude
Unknown
Speed
Unknown
Apparent Right ascension
Unknown
Apparent Declination
Unknown
Sunlit
N/A
Visualization observer readout
Local Sidereal Time
09:06:18
Azimuth
Unknown
Elevation
Unknown
Doppler factor
Unknown
Orbital elements
Apogee altitude
1,104.654 km
Perigee altitude
1,062.497 km
Semi-major axis
7,461.712 km
Eccentricity
0.00282
Inclination
89.974°
RAAN
334.1673°
Arg. of periapsis
96.4268°
True anomaly
77.1864°
Mean anomaly
76.8709°
Eccentric anomaly
77.02862°
Mean motion
3.36733 °/min
Orbital period
106.91 mins
BSTAR
0.000052971
Loading maneuver chart data...
Computing Atmospheric mass density...

Documentation

Showing up to 5 results
|